Time,TemperatureF,DewpointF,PressureIn,WindDirection,WindDirectionDegrees,WindSpeedMPH,WindSpeedGustMPH,Humidity,HourlyPrecipIn,Conditions,Clouds,dailyrainin,SoftwareType,DateUTC
2013-11-06 00:09:00,45.3,45.0,30.14,NE,45,0.0,-999.0,99,-99.99,,,0.00,Acu-Link.com,2013-11-06 05:09:00,
2013-11-06 00:24:00,45.7,45.4,30.14,NNE,22,0.0,-999.0,99,-99.99,,,0.00,Acu-Link.com,2013-11-06 05:24:00,
2013-11-06 00:40:00,46.2,45.9,30.14,WSW,247,0.0,-999.0,99,-99.99,,,0.00,Acu-Link.com,2013-11-06 05:40:00,
2013-11-06 00:55:00,46.4,46.1,30.14,South,180,0.0,-999.0,99,-99.99,,,0.00,Acu-Link.com,2013-11-06 05:55:00,
2013-11-06 01:10:00,46.9,46.6,30.14,SE,135,0.0,-999.0,99,-99.99,,,0.00,Acu-Link.com,2013-11-06 06:10:00,
2013-11-06 01:25:00,47.3,47.0,30.13,East,90,0.0,-999.0,99,-99.99,,,0.00,Acu-Link.com,2013-11-06 06:25:00,
2013-11-06 01:40:00,47.5,47.2,30.13,East,90,0.0,-999.0,99,-99.99,,,0.00,Acu-Link.com,2013-11-06 06:40:00,
2013-11-06 01:55:00,47.7,47.4,30.13,ESE,112,0.0,-999.0,99,-99.99,,,0.00,Acu-Link.com,2013-11-06 06:55:00,
2013-11-06 02:10:00,48.2,47.9,30.13,South,180,0.0,-999.0,99,-99.99,,,0.00,Acu-Link.com,2013-11-06 07:10:00,
2013-11-06 02:26:00,48.2,47.7,30.12,ENE,67,0.0,-999.0,98,-99.99,,,0.00,Acu-Link.com,2013-11-06 07:26:00,
2013-11-06 02:41:00,48.4,47.9,30.12,WNW,292,0.0,-999.0,98,-99.99,,,0.00,Acu-Link.com,2013-11-06 07:41:00,
2013-11-06 02:56:00,48.6,47.8,30.11,SSE,157,0.0,-999.0,97,-99.99,,,0.00,Acu-Link.com,2013-11-06 07:56:00,
2013-11-06 03:11:00,48.7,48.2,30.11,SSE,157,0.0,-999.0,98,-99.99,,,0.00,Acu-Link.com,2013-11-06 08:11:00,
2013-11-06 03:27:00,48.9,48.1,30.11,SW,225,0.0,-999.0,97,-99.99,,,0.00,Acu-Link.com,2013-11-06 08:27:00,
2013-11-06 03:42:00,49.1,48.6,30.11,West,270,0.0,-999.0,98,-99.99,,,0.00,Acu-Link.com,2013-11-06 08:42:00,
2013-11-06 03:57:00,49.6,48.8,30.11,South,180,0.0,-999.0,97,-99.99,,,0.00,Acu-Link.com,2013-11-06 08:57:00,
2013-11-06 04:12:00,49.6,47.7,30.10,NNE,22,0.0,-999.0,93,-99.99,,,0.00,Acu-Link.com,2013-11-06 09:12:00,
2013-11-06 04:28:00,50.2,48.3,30.10,ESE,112,0.0,-999.0,93,-99.99,,,0.00,Acu-Link.com,2013-11-06 09:28:00,
2013-11-06 04:43:00,50.2,48.8,30.10,South,180,0.0,-999.0,95,-99.99,,,0.00,Acu-Link.com,2013-11-06 09:43:00,
2013-11-06 04:58:00,50.4,48.7,30.10,WSW,247,0.0,-999.0,94,-99.99,,,0.00,Acu-Link.com,2013-11-06 09:58:00,
2013-11-06 05:13:00,50.4,49.0,30.09,ESE,112,0.0,-999.0,95,-99.99,,,0.00,Acu-Link.com,2013-11-06 10:13:00,
2013-11-06 05:28:00,50.4,49.6,30.09,ENE,67,0.0,-999.0,97,-99.99,,,0.00,Acu-Link.com,2013-11-06 10:28:00,
2013-11-06 05:44:00,50.0,48.6,30.08,West,270,0.0,-999.0,95,-99.99,,,0.00,Acu-Link.com,2013-11-06 10:44:00,
2013-11-06 05:59:00,50.2,48.5,30.08,WNW,292,0.0,-999.0,94,-99.99,,,0.00,Acu-Link.com,2013-11-06 10:59:00,
2013-11-06 06:14:00,50.4,47.9,30.08,WNW,292,0.0,-999.0,91,-99.99,,,0.00,Acu-Link.com,2013-11-06 11:14:00,
2013-11-06 06:29:00,50.5,47.7,30.08,South,180,0.0,-999.0,90,-99.99,,,0.00,Acu-Link.com,2013-11-06 11:29:00,
2013-11-06 06:44:00,50.7,48.2,30.09,South,180,0.0,-999.0,91,-99.99,,,0.00,Acu-Link.com,2013-11-06 11:44:00,
2013-11-06 06:59:00,50.7,48.5,30.08,SW,225,0.0,-999.0,92,-99.99,,,0.00,Acu-Link.com,2013-11-06 11:59:00,
2013-11-06 07:15:00,50.7,49.0,30.08,ENE,67,0.0,-999.0,94,-99.99,,,0.00,Acu-Link.com,2013-11-06 12:15:00,
2013-11-06 07:30:00,50.4,48.2,30.08,South,180,0.0,-999.0,92,-99.99,,,0.00,Acu-Link.com,2013-11-06 12:30:00,
2013-11-06 07:45:00,50.7,49.0,30.09,SW,225,0.0,-999.0,94,-99.99,,,0.00,Acu-Link.com,2013-11-06 12:45:00,
2013-11-06 08:00:00,52.2,49.1,30.08,SE,135,0.0,-999.0,89,-99.99,,,0.00,Acu-Link.com,2013-11-06 13:00:00,
2013-11-06 08:15:00,53.2,48.8,30.08,East,90,0.0,-999.0,85,-99.99,,,0.00,Acu-Link.com,2013-11-06 13:15:00,
2013-11-06 08:30:00,54.7,50.3,30.09,SW,225,0.0,-999.0,85,-99.99,,,0.00,Acu-Link.com,2013-11-06 13:30:00,
2013-11-06 08:45:00,57.2,50.4,30.09,SSW,202,0.0,-999.0,78,-99.99,,,0.00,Acu-Link.com,2013-11-06 13:45:00,
2013-11-06 09:01:00,58.6,51.4,30.09,SSE,157,2.2,-999.0,77,-99.99,,,0.00,Acu-Link.com,2013-11-06 14:01:00,
2013-11-06 09:16:00,59.2,52.0,30.09,NNE,22,0.0,-999.0,77,-99.99,,,0.00,Acu-Link.com,2013-11-06 14:16:00,
2013-11-06 09:31:00,60.1,52.9,30.08,South,180,0.0,-999.0,77,-99.99,,,0.00,Acu-Link.com,2013-11-06 14:31:00,
2013-11-06 09:46:00,61.2,53.2,30.08,SE,135,0.0,-999.0,75,-99.99,,,0.00,Acu-Link.com,2013-11-06 14:46:00,
2013-11-06 10:01:00,63.1,54.7,30.08,SSW,202,1.7,-999.0,74,-99.99,,,0.00,Acu-Link.com,2013-11-06 15:01:00,
2013-11-06 10:16:00,62.4,55.4,30.08,SW,225,2.2,-999.0,78,-99.99,,,0.00,Acu-Link.com,2013-11-06 15:16:00,
2013-11-06 10:32:00,63.1,56.1,30.08,SSE,157,0.0,-999.0,78,-99.99,,,0.00,Acu-Link.com,2013-11-06 15:32:00,
2013-11-06 10:47:00,64.8,57.4,30.08,ESE,112,0.0,-999.0,77,-99.99,,,0.00,Acu-Link.com,2013-11-06 15:47:00,
2013-11-06 11:02:00,66.7,58.5,30.07,SSW,202,0.0,-999.0,75,-99.99,,,0.00,Acu-Link.com,2013-11-06 16:02:00,
2013-11-06 11:17:00,69.1,59.3,30.06,SSW,202,2.7,-999.0,71,-99.99,,,0.00,Acu-Link.com,2013-11-06 16:17:00,
2013-11-06 11:32:00,68.7,58.5,30.06,SW,225,3.7,-999.0,70,-99.99,,,0.00,Acu-Link.com,2013-11-06 16:32:00,
2013-11-06 11:47:00,69.1,57.7,30.05,SW,225,3.7,-999.0,67,-99.99,,,0.00,Acu-Link.com,2013-11-06 16:47:00,
2013-11-06 12:02:00,71.4,58.6,30.04,SSE,157,4.7,-999.0,64,-99.99,,,0.00,Acu-Link.com,2013-11-06 17:02:00,
2013-11-06 12:17:00,71.8,58.5,30.03,South,180,5.8,-999.0,63,-99.99,,,0.00,Acu-Link.com,2013-11-06 17:17:00,
2013-11-06 12:32:00,72.3,58.5,30.03,SW,225,9.9,-999.0,62,-99.99,,,0.00,Acu-Link.com,2013-11-06 17:32:00,
2013-11-06 12:47:00,72.7,58.0,30.01,SSE,157,5.3,-999.0,60,-99.99,,,0.00,Acu-Link.com,2013-11-06 17:47:00,
2013-11-06 13:03:00,74.3,59.0,30.00,SSW,202,9.9,-999.0,59,-99.99,,,0.00,Acu-Link.com,2013-11-06 18:03:00,
2013-11-06 13:18:00,73.0,58.3,29.99,SW,225,4.7,-999.0,60,-99.99,,,0.00,Acu-Link.com,2013-11-06 18:18:00,
2013-11-06 13:33:00,75.2,58.4,29.99,SSW,202,8.3,-999.0,56,-99.99,,,0.00,Acu-Link.com,2013-11-06 18:33:00,
2013-11-06 13:48:00,75.9,59.6,29.97,South,180,3.2,-999.0,57,-99.99,,,0.00,Acu-Link.com,2013-11-06 18:48:00,
2013-11-06 14:03:00,75.2,58.9,29.97,SSW,202,4.2,-999.0,57,-99.99,,,0.00,Acu-Link.com,2013-11-06 19:03:00,
2013-11-06 14:18:00,73.0,58.3,29.96,ENE,67,2.7,-999.0,60,-99.99,,,0.00,Acu-Link.com,2013-11-06 19:18:00,
2013-11-06 14:34:00,72.9,58.6,29.96,WSW,247,4.2,-999.0,61,-99.99,,,0.00,Acu-Link.com,2013-11-06 19:34:00,
2013-11-06 14:49:00,73.9,58.7,29.95,SW,225,5.3,-999.0,59,-99.99,,,0.00,Acu-Link.com,2013-11-06 19:49:00,
2013-11-06 15:04:00,73.6,58.4,29.95,SSW,202,5.8,-999.0,59,-99.99,,,0.00,Acu-Link.com,2013-11-06 20:04:00,
2013-11-06 15:19:00,72.7,58.0,29.94,East,90,9.9,-999.0,60,-99.99,,,0.00,Acu-Link.com,2013-11-06 20:19:00,
2013-11-06 15:34:00,74.7,58.9,29.94,SSE,157,2.7,-999.0,58,-99.99,,,0.00,Acu-Link.com,2013-11-06 20:34:00,
2013-11-06 15:49:00,73.2,58.5,29.94,SW,225,7.8,-999.0,60,-99.99,,,0.00,Acu-Link.com,2013-11-06 20:49:00,
2013-11-06 16:04:00,72.1,57.9,29.93,SW,225,6.8,-999.0,61,-99.99,,,0.00,Acu-Link.com,2013-11-06 21:04:00,
2013-11-06 16:19:00,72.1,58.3,29.93,WSW,247,2.7,-999.0,62,-99.99,,,0.00,Acu-Link.com,2013-11-06 21:19:00,
2013-11-06 16:34:00,71.1,58.3,29.93,SW,225,4.7,-999.0,64,-99.99,,,0.00,Acu-Link.com,2013-11-06 21:34:00,
2013-11-06 16:50:00,70.7,58.3,29.92,SSW,202,6.3,-999.0,65,-99.99,,,0.00,Acu-Link.com,2013-11-06 21:50:00,
2013-11-06 17:05:00,70.5,58.2,29.93,West,270,1.7,-999.0,65,-99.99,,,0.00,Acu-Link.com,2013-11-06 22:05:00,
2013-11-06 17:20:00,69.8,58.3,29.92,ESE,112,0.0,-999.0,67,-99.99,,,0.00,Acu-Link.com,2013-11-06 22:20:00,
2013-11-06 17:35:00,69.4,58.0,29.92,East,90,4.2,-999.0,67,-99.99,,,0.00,Acu-Link.com,2013-11-06 22:35:00,
2013-11-06 17:50:00,68.7,57.7,29.93,South,180,2.2,-999.0,68,-99.99,,,0.00,Acu-Link.com,2013-11-06 22:50:00,
2013-11-06 18:05:00,67.8,58.0,29.94,SE,135,0.0,-999.0,71,-99.99,,,0.00,Acu-Link.com,2013-11-06 23:05:00,
2013-11-06 18:21:00,66.9,57.6,29.94,South,180,1.7,-999.0,72,-99.99,,,0.00,Acu-Link.com,2013-11-06 23:21:00,
2013-11-06 18:36:00,66.4,57.9,29.94,SSW,202,1.1,-999.0,74,-99.99,,,0.00,Acu-Link.com,2013-11-06 23:36:00,
2013-11-06 18:51:00,65.7,57.6,29.94,South,180,1.1,-999.0,75,-99.99,,,0.00,Acu-Link.com,2013-11-06 23:51:00,
2013-11-06 19:06:00,64.2,57.2,29.94,SW,225,2.7,-999.0,78,-99.99,,,0.00,Acu-Link.com,2013-11-07 00:06:00,
2013-11-06 19:21:00,63.3,57.0,29.94,ESE,112,0.0,-999.0,80,-99.99,,,0.00,Acu-Link.com,2013-11-07 00:21:00,
2013-11-06 19:36:00,62.1,56.9,29.93,SE,135,0.0,-999.0,83,-99.99,,,0.00,Acu-Link.com,2013-11-07 00:36:00,
2013-11-06 19:51:00,60.8,56.6,29.92,SSE,157,0.0,-999.0,86,-99.99,,,0.00,Acu-Link.com,2013-11-07 00:51:00,
2013-11-06 20:06:00,59.7,56.5,29.92,East,90,0.0,-999.0,89,-99.99,,,0.00,Acu-Link.com,2013-11-07 01:06:00,
2013-11-06 20:21:00,59.4,56.2,29.91,WSW,247,0.0,-999.0,89,-99.99,,,0.00,Acu-Link.com,2013-11-07 01:21:00,
2013-11-06 20:37:00,59.2,56.3,29.91,SSE,157,0.0,-999.0,90,-99.99,,,0.00,Acu-Link.com,2013-11-07 01:37:00,
2013-11-06 20:52:00,58.6,56.0,29.92,South,180,0.0,-999.0,91,-99.99,,,0.00,Acu-Link.com,2013-11-07 01:52:00,
2013-11-06 21:07:00,57.9,55.9,29.92,SW,225,0.0,-999.0,93,-99.99,,,0.00,Acu-Link.com,2013-11-07 02:07:00,
2013-11-06 21:22:00,57.9,55.9,29.92,SE,135,0.0,-999.0,93,-99.99,,,0.00,Acu-Link.com,2013-11-07 02:22:00,
2013-11-06 21:37:00,58.3,56.3,29.93,ESE,112,0.0,-999.0,93,-99.99,,,0.00,Acu-Link.com,2013-11-07 02:37:00,
2013-11-06 21:52:00,59.7,57.1,29.92,SSW,202,3.2,-999.0,91,-99.99,,,0.00,Acu-Link.com,2013-11-07 02:52:00,
2013-11-06 22:07:00,61.5,57.3,29.91,NE,45,1.1,-999.0,86,-99.99,,,0.00,Acu-Link.com,2013-11-07 03:07:00,
2013-11-06 22:22:00,63.0,57.8,29.91,ESE,112,4.7,-999.0,83,-99.99,,,0.00,Acu-Link.com,2013-11-07 03:22:00,
2013-11-06 22:37:00,63.1,57.5,29.90,SSE,157,2.2,-999.0,82,-99.99,,,0.00,Acu-Link.com,2013-11-07 03:37:00,
2013-11-06 22:53:00,62.2,57.3,29.91,West,270,1.7,-999.0,84,-99.99,,,0.00,Acu-Link.com,2013-11-07 03:53:00,
2013-11-06 23:08:00,62.2,57.6,29.90,SW,225,0.0,-999.0,85,-99.99,,,0.00,Acu-Link.com,2013-11-07 04:08:00,
2013-11-06 23:23:00,63.3,57.7,29.90,SW,225,0.0,-999.0,82,-99.99,,,0.00,Acu-Link.com,2013-11-07 04:23:00,
2013-11-06 23:38:00,63.5,57.9,29.90,WNW,292,1.7,-999.0,82,-99.99,,,0.00,Acu-Link.com,2013-11-07 04:38:00,
2013-11-06 23:53:00,64.2,58.2,29.90,NNW,337,2.7,-999.0,81,-99.99,,,0.00,Acu-Link.com,2013-11-07 04:53:00,